Content
SEND FEEDBACK

Daily
Averages
Monthly
Summary
United States of America

STEAMBOAT SPRINGS, COLORADO


Home > North America > United States > Colorado
Elevation: 6917 feet     Latitude: 40 30N     Longitude: 106 50W

WEATHER
 
SELECT A DAY
Number of Records: 81,991;   Date Range: 1/3/95 - 7/10/14
 
SHARE

PRINT THIS DATA

[ ← Previous Day ]
WEATHER ALMANAC - JANUARY 12, 2014
[ Next Day → ]
[ °C ]   °F
Weather ElementAverageHighLow
Temperature25.1 °F31.6 °F (4:15 am)20.3 °F (11:35 pm)
Dewpoint17 °F25.9 °F (4:35 am)10.2 °F (4:15 pm)
Humidity72.5 %99 % (6:55 am)52 % (11:35 am)
Barometer29.88 in30.13 in (11:55 pm)29.68 in (3:55 am)
Wind Speed13.1 mph29.9 mph (2:35 pm)
Wind Gust41.4 mph (2:35 pm)
Weather ElementAverage
Visibility6.4 mi
Wind DirectionSSW (203.5 °)

Weather ElementTotal
Precipitation---
Heating Degree Days39.1 (Base 65)
Averaged from 71 records on January 12, 2014
WEATHER CONDITIONS BREAKOUT
WIND DIRECTION BREAKOUT
WEATHER BY HOUR - JANUARY 12, 2014
[ °C ]   °F
Local TimeTemperatureDewpointHumidityBarometerVisibilityWind DirectionWind SpeedGust SpeedPrecipitationEventsConditions
12:35 AM25.2 °F22.6 °F90 %29.74 in10.0 miSSW (200°)3.5 mphOvercast
12:55 AM26.8 °F21.2 °F79 %29.73 in10.0 miCalmOvercast
1:15 AM25.5 °F20.5 °F81 %29.73 in10.0 miWNW (300°)3.5 mphOvercast
1:35 AM26.6 °F19.8 °F75 %29.72 in10.0 miCalmOvercast
1:55 AM24.8 °F22.3 °F90 %29.71 in10.0 miCalmMostly Cloudy
2:15 AM24.4 °F21.2 °F87 %29.72 in10.0 miCalmMostly Cloudy
2:35 AM26.6 °F22.6 °F85 %29.72 in10.0 miCalmOvercast
2:55 AM25.3 °F20.3 °F81 %29.70 in10.0 miCalmOvercast
3:15 AM28.9 °F22.1 °F76 %29.69 in10.0 miCalmOvercast
3:35 AM28.6 °F22.6 °F78 %29.69 in10.0 miCalmOvercast
3:55 AM30.6 °F21.4 °F69 %29.68 in10.0 miCalmOvercast
4:15 AM31.6 °F25.5 °F78 %29.70 in3.0 miWest (270°)16.1 mph25.3 mphOvercast
4:35 AM30.6 °F25.9 °F83 %29.70 in2.5 miWNW (300°)16.1 mph23.0 mphOvercast
4:55 AM28.8 °F23.4 °F80 %29.72 in1.8 miWest (280°)13.8 mph23.0 mphOvercast
5:15 AM27.5 °F23.0 °F83 %29.73 in2.5 miWest (270°)13.8 mph21.9 mphOvercast
5:35 AM27.1 °F24.1 °F88 %29.74 in1.0 miWest (270°)6.9 mphOvercast
5:55 AM26.6 °F25.7 °F96 %29.74 in1.2 miCalmOvercast
6:15 AM25.7 °F25.2 °F98 %29.74 in0.8 miSW (220°)5.8 mphOvercast
6:35 AM25.7 °F25.0 °F97 %29.75 in1.0 miSW (220°)6.9 mphOvercast
6:55 AM25.5 °F25.2 °F99 %29.75 in1.2 miSSW (210°)5.8 mphOvercast
7:15 AM25.7 °F25.3 °F99 %29.76 in1.2 miSW (230°)9.2 mphOvercast
7:35 AM25.3 °F24.8 °F98 %29.77 in1.0 miWSW (240°)11.5 mphOvercast
7:55 AM25.2 °F24.8 °F99 %29.78 in0.5 miWSW (240°)5.8 mphOvercast
8:15 AM25.3 °F24.8 °F98 %29.79 in0.5 miWSW (250°)10.4 mphOvercast
8:35 AM25.7 °F25.3 °F99 %29.80 in0.5 miSW (230°)6.9 mphOvercast
8:55 AM26.1 °F25.5 °F98 %29.81 in1.0 miWSW (240°)10.4 mphOvercast
9:15 AM26.2 °F21.7 °F83 %29.81 in7.0 miWSW (240°)12.7 mphOvercast
9:35 AM27.1 °F18.5 °F70 %29.82 in7.0 miWSW (250°)17.3 mph21.9 mphOvercast
9:55 AM26.6 °F19.2 °F74 %29.84 in10.0 miWSW (240°)16.1 mph21.9 mphOvercast
10:15 AM27.1 °F15.6 °F62 %29.86 in10.0 miWest (260°)21.9 mph29.9 mphOvercast
10:35 AM26.6 °F14.9 °F61 %29.86 in3.0 miWest (260°)26.5 mph40.3 mphOvercast
10:55 AM26.6 °F14.2 °F60 %29.87 in4.0 miWest (270°)21.9 mph34.5 mphOvercast
11:15 AM27.5 °F13.6 °F56 %29.86 in5.0 miWest (260°)25.3 mph34.5 mphMostly Cloudy
11:35 AM27.3 °F11.8 °F52 %29.85 in10.0 miWest (260°)17.3 mph26.5 mphScattered Clouds
11:55 AM27.1 °F11.7 °F52 %29.84 in4.0 miWSW (250°)20.7 mph35.7 mphClear
12:15 PM27.1 °F12.9 °F55 %29.83 in5.0 miWSW (250°)19.6 mph29.9 mphClear
12:35 PM27.3 °F13.6 °F56 %29.84 in3.0 miWest (260°)19.6 mph34.5 mphMostly Cloudy
12:55 PM27.3 °F13.5 °F56 %29.85 in5.0 miWest (260°)23.0 mph31.1 mphOvercast
1:15 PM26.8 °F13.5 °F57 %29.86 in3.0 miWest (260°)23.0 mph35.7 mphOvercast
1:35 PM27.1 °F12.2 °F53 %29.86 in4.0 miWest (260°)28.8 mph38.0 mphMostly Cloudy
1:55 PM26.6 °F11.3 °F53 %29.87 in5.0 miWest (260°)24.2 mph38.0 mphMostly Cloudy
2:15 PM26.1 °F12.2 °F56 %29.88 in10.0 miWest (260°)23.0 mph28.8 mphMostly Cloudy
2:35 PM27.1 °F12.4 °F54 %29.88 in2.0 miWest (260°)29.9 mph41.4 mphOvercast
2:55 PM27.1 °F12.2 °F53 %29.90 in4.0 miWest (260°)25.3 mph35.7 mphMostly Cloudy
3:15 PM25.3 °F12.0 °F57 %29.92 in5.0 miWest (260°)23.0 mph34.5 mphOvercast
3:35 PM25.5 °F11.7 °F56 %29.94 in7.0 miWSW (250°)17.3 mph25.3 mphOvercast
3:55 PM24.8 °F10.9 °F56 %29.95 in4.0 miWest (260°)21.9 mph32.2 mphOvercast
4:15 PM24.6 °F10.2 °F54 %29.96 in10.0 miWest (260°)19.6 mph24.2 mphMostly Cloudy
4:35 PM24.1 °F10.2 °F56 %29.97 in10.0 miWest (260°)15.0 mph24.2 mphMostly Cloudy
4:55 PM23.9 °F11.1 °F58 %29.97 in5.0 miWest (270°)21.9 mph33.4 mphOvercast
5:15 PM23.2 °F12.9 °F65 %29.97 in4.0 miWest (260°)25.3 mph33.4 mphOvercast
5:35 PM23.0 °F12.9 °F65 %29.99 in7.0 miWSW (250°)15.0 mph21.9 mphOvercast
5:55 PM22.8 °F12.6 °F65 %30.00 in10.0 miWest (260°)15.0 mph24.2 mphOvercast
6:15 PM23.0 °F11.8 °F62 %30.01 in10.0 miWest (270°)20.7 mph25.3 mphOvercast
6:35 PM22.5 °F12.6 °F66 %30.02 in10.0 miWest (260°)16.1 mph28.8 mphOvercast
6:55 PM22.6 °F12.6 °F65 %30.04 in10.0 miWSW (250°)13.8 mph26.5 mphOvercast
7:15 PM22.1 °F13.8 °F70 %30.04 in7.0 miWSW (250°)17.3 mphOvercast
7:35 PM21.6 °F14.7 °F75 %30.05 in5.0 miWSW (250°)18.4 mph21.9 mphOvercast
7:55 PM21.6 °F14.4 °F74 %30.05 in5.0 miWSW (250°)19.6 mph25.3 mphOvercast
8:15 PM21.6 °F13.6 °F72 %30.06 in7.0 miWSW (250°)16.1 mph26.5 mphOvercast
8:35 PM21.2 °F13.6 °F73 %30.05 in10.0 miWSW (250°)21.9 mph27.6 mphOvercast
8:55 PM21.2 °F13.5 °F72 %30.06 in10.0 miWSW (250°)16.1 mph25.3 mphOvercast
9:15 PM21.2 °F13.1 °F71 %30.07 in10.0 miWSW (250°)15.0 mphOvercast
9:35 PM21.2 °F13.1 °F71 %30.08 in10.0 miWSW (250°)15.0 mph24.2 mphOvercast
9:55 PM21.0 °F12.7 °F70 %30.09 in10.0 miWSW (250°)13.8 mph20.7 mphOvercast
10:15 PM20.7 °F13.1 °F73 %30.10 in10.0 miWSW (250°)8.1 mphOvercast
10:35 PM20.8 °F12.4 °F70 %30.11 in10.0 miWSW (250°)4.6 mphOvercast
10:55 PM20.8 °F12.2 °F69 %30.12 in10.0 miCalmOvercast
11:15 PM20.8 °F12.2 °F69 %30.12 in10.0 miCalmOvercast
11:35 PM20.3 °F12.4 °F71 %30.12 in10.0 miCalmOvercast
11:55 PM20.3 °F12.7 °F73 %30.13 in10.0 miCalmOvercast
Hourly data recorded from KSBS, located miles away from Steamboat Springs, Colorado







STORIES FROM OUR PARTNERS